• In Russia
  • List of Countries
  • For 7 days
  • Water Temperature
  • Satellite Maps
  • Weather Map
  • Weather Widgets
  • user-avatar
    Login

    Hourly Weather Salzburg

    Today, 26 July, Wednesday

    Time Temperature Precipitation Wind Pressure Humidity
    00:00 +5°C° 0.5 mm 2 mps 620 mmHg 95%
    01:00 +6°C° 0.5 mm 1 mps 620 mmHg 95%
    02:00 +6°C° 0.4 mm 1 mps 620 mmHg 94%
    03:00 +5°C° 0.4 mm 1 mps 620 mmHg 94%
    04:00 +5°C° 0.4 mm 1 mps 620 mmHg 94%
    05:00 +5°C° 0.9 mm 1 mps 620 mmHg 94%
    06:00 +5°C° 0.9 mm 2 mps 620 mmHg 94%
    07:00 +5°C° 0.9 mm 2 mps 620 mmHg 95%
    08:00 +5°C° 1.6 mm 2 mps 620 mmHg 94%
    09:00 +6°C° 1.6 mm 2 mps 620 mmHg 93%
    10:00 +6°C° 1.6 mm 2 mps 621 mmHg 92%
    11:00 +6°C° 1.9 mm 2 mps 621 mmHg 92%
    12:00 +6°C° 1.9 mm 2 mps 621 mmHg 92%
    13:00 +5°C° 1.9 mm 3 mps 621 mmHg 92%
    14:00 +6°C° 0.9 mm 2 mps 622 mmHg 91%
    15:00 +7°C° 0.9 mm 2 mps 622 mmHg 90%
    16:00 +7°C° 0.9 mm 2 mps 622 mmHg 89%
    17:00 +7°C° 0.7 mm 2 mps 622 mmHg 90%
    18:00 +6°C° 0.7 mm 2 mps 622 mmHg 92%
    19:00 +6°C° 0.7 mm 2 mps 623 mmHg 93%
    20:00 +5°C° 1.1 mm 2 mps 623 mmHg 94%
    21:00 +5°C° 1.1 mm 2 mps 623 mmHg 95%
    22:00 +5°C° 1.1 mm 2 mps 623 mmHg 96%
    23:00 +5°C° 1.4 mm 2 mps 623 mmHg 96%

    Tomorrow, 27 July, Thursday

    Time Temperature Precipitation Wind Pressure Humidity
    00:00 +5°C° 1.4 mm 2 mps 623 mmHg 96%
    01:00 +5°C° 1.4 mm 2 mps 623 mmHg 96%
    02:00 +5°C° 0.7 mm 2 mps 623 mmHg 96%
    03:00 +5°C° 0.7 mm 2 mps 623 mmHg 96%
    04:00 +5°C° 0.7 mm 2 mps 623 mmHg 96%
    05:00 +6°C° 0 mm 2 mps 624 mmHg 93%
    06:00 +7°C° 0 mm 2 mps 624 mmHg 91%
    07:00 +8°C° 0 mm 2 mps 625 mmHg 89%
    08:00 +9°C° 0 mm 2 mps 625 mmHg 79%
    09:00 +12°C° 0 mm 2 mps 626 mmHg 69%
    10:00 +13°C° 0 mm 2 mps 626 mmHg 59%
    11:00 +12°C° 0.6 mm 1 mps 626 mmHg 66%
    12:00 +12°C° 0.6 mm 1 mps 625 mmHg 73%
    13:00 +11°C° 0.6 mm 1 mps 625 mmHg 80%
    14:00 +10°C° 1.2 mm 1 mps 625 mmHg 83%
    15:00 +10°C° 1.2 mm 1 mps 625 mmHg 86%
    16:00 +9°C° 1.2 mm 2 mps 625 mmHg 90%
    17:00 +10°C° 0.4 mm 1 mps 625 mmHg 90%
    18:00 +10°C° 0.4 mm 1 mps 625 mmHg 91%
    19:00 +10°C° 0.4 mm 1 mps 625 mmHg 92%
    20:00 +10°C° 0.1 mm 1 mps 625 mmHg 92%
    21:00 +9°C° 0.1 mm 1 mps 625 mmHg 93%
    22:00 +9°C° 0.1 mm 1 mps 625 mmHg 93%
    23:00 +8°C° 0.2 mm 1 mps 625 mmHg 93%

    Day after tomorrow, 28 July, Friday

    Time Temperature Precipitation Wind Pressure Humidity
    00:00 +8°C° 0.2 mm 1 mps 625 mmHg 93%
    01:00 +8°C° 0.2 mm 1 mps 625 mmHg 93%
    02:00 +8°C° 0.7 mm 1 mps 625 mmHg 94%
    03:00 +8°C° 0.7 mm 1 mps 625 mmHg 95%
    04:00 +8°C° 0.7 mm 1 mps 625 mmHg 95%
    05:00 +9°C° 0.1 mm 1 mps 626 mmHg 94%
    06:00 +10°C° 0.1 mm 1 mps 626 mmHg 92%
    07:00 +11°C° 0.1 mm 1 mps 627 mmHg 90%
    08:00 +13°C° 0.3 mm 1 mps 627 mmHg 84%
    09:00 +14°C° 0.3 mm 1 mps 628 mmHg 78%
    10:00 +16°C° 0.3 mm 1 mps 629 mmHg 72%
    11:00 +15°C° 0.6 mm 1 mps 628 mmHg 77%
    12:00 +14°C° 0.6 mm 1 mps 628 mmHg 82%
    13:00 +13°C° 0.6 mm 2 mps 628 mmHg 87%
    14:00 +14°C° 0.2 mm 2 mps 628 mmHg 82%
    15:00 +15°C° 0.2 mm 2 mps 629 mmHg 77%
    16:00 +16°C° 0.2 mm 2 mps 629 mmHg 73%
    17:00 +15°C° 0.2 mm 2 mps 629 mmHg 79%
    18:00 +14°C° 0.2 mm 1 mps 629 mmHg 84%
    19:00 +13°C° 0.2 mm 1 mps 629 mmHg 90%
    20:00 +12°C° 0 mm 1 mps 629 mmHg 92%
    21:00 +11°C° 0 mm 1 mps 629 mmHg 94%
    22:00 +10°C° 0 mm 1 mps 629 mmHg 96%
    23:00 +9°C° 0 mm 1 mps 629 mmHg 96%

    29 July, Saturday

    Time Temperature Precipitation Wind Pressure Humidity
    00:00 +9°C° 0 mm 1 mps 629 mmHg 96%
    01:00 +9°C° 0 mm 1 mps 628 mmHg 95%
    02:00 +9°C° 0 mm 1 mps 628 mmHg 95%
    03:00 +9°C° 0 mm 1 mps 628 mmHg 95%
    04:00 +9°C° 0 mm 1 mps 628 mmHg 94%
    05:00 +10°C° 0 mm 1 mps 629 mmHg 92%
    06:00 +12°C° 0 mm 1 mps 630 mmHg 89%
    07:00 +13°C° 0 mm 1 mps 630 mmHg 86%
    08:00 +15°C° 0.1 mm 1 mps 631 mmHg 81%
    09:00 +18°C° 0.1 mm 1 mps 632 mmHg 75%
    10:00 +19°C° 0.1 mm 1 mps 632 mmHg 69%
    11:00 +19°C° 0.7 mm 1 mps 632 mmHg 73%
    12:00 +18°C° 0.7 mm 1 mps 632 mmHg 78%
    13:00 +17°C° 0.7 mm 2 mps 631 mmHg 82%
    14:00 +16°C° 1.3 mm 1 mps 631 mmHg 86%
    15:00 +15°C° 1.3 mm 1 mps 631 mmHg 90%
    16:00 +14°C° 1.3 mm 1 mps 631 mmHg 94%
    17:00 +14°C° 3.2 mm 1 mps 630 mmHg 95%
    18:00 +13°C° 3.2 mm 1 mps 630 mmHg 97%
    19:00 +13°C° 3.2 mm 1 mps 630 mmHg 98%
    20:00 +12°C° 3.2 mm 1 mps 630 mmHg 98%
    21:00 +12°C° 3.2 mm 1 mps 630 mmHg 97%
    22:00 +10°C° 3.2 mm 2 mps 630 mmHg 97%
    23:00 +10°C° 0.8 mm 2 mps 630 mmHg 97%

    30 July, Sunday

    Time Temperature Precipitation Wind Pressure Humidity
    00:00 +11°C° 0.8 mm 1 mps 630 mmHg 96%
    01:00 +11°C° 0.8 mm 1 mps 630 mmHg 96%
    02:00 +10°C° 0.2 mm 1 mps 629 mmHg 95%
    03:00 +10°C° 0.2 mm 1 mps 629 mmHg 95%
    04:00 +10°C° 0.2 mm 1 mps 629 mmHg 94%
    05:00 +11°C° 0.1 mm 1 mps 629 mmHg 93%
    06:00 +12°C° 0.1 mm 1 mps 629 mmHg 92%
    07:00 +13°C° 0.1 mm 1 mps 629 mmHg 91%
    08:00 +15°C° 0 mm 1 mps 630 mmHg 80%
    09:00 +18°C° 0 mm 1 mps 631 mmHg 68%
    10:00 +21°C° 0 mm 1 mps 632 mmHg 57%
    11:00 +22°C° 0.2 mm 1 mps 632 mmHg 53%
    12:00 +24°C° 0.2 mm 1 mps 632 mmHg 49%
    13:00 +25°C° 0.2 mm 1 mps 632 mmHg 45%
    14:00 +24°C° 0.4 mm 1 mps 632 mmHg 48%
    15:00 +24°C° 0.4 mm 1 mps 632 mmHg 52%
    16:00 +23°C° 0.4 mm 1 mps 631 mmHg 55%
    17:00 +21°C° 0.6 mm 1 mps 631 mmHg 64%
    18:00 +20°C° 0.6 mm 1 mps 630 mmHg 73%
    19:00 +18°C° 0.6 mm 1 mps 630 mmHg 82%
    20:00 +16°C° 0.2 mm 1 mps 630 mmHg 84%
    21:00 +14°C° 0.2 mm 1 mps 630 mmHg 87%
    22:00 +13°C° 0.2 mm 1 mps 630 mmHg 89%
    23:00 +13°C° 0 mm 1 mps 630 mmHg 90%

    31 July, Monday

    Time Temperature Precipitation Wind Pressure Humidity
    00:00 +12°C° 0 mm 1 mps 630 mmHg 90%
    01:00 +12°C° 0 mm 1 mps 630 mmHg 90%
    02:00 +12°C° 0 mm 1 mps 629 mmHg 90%
    03:00 +12°C° 0 mm 1 mps 629 mmHg 89%
    04:00 +11°C° 0 mm 1 mps 629 mmHg 89%
    05:00 +13°C° 0 mm 1 mps 630 mmHg 86%
    06:00 +14°C° 0 mm 1 mps 630 mmHg 83%
    07:00 +16°C° 0 mm 1 mps 631 mmHg 80%
    08:00 +19°C° 0 mm 1 mps 632 mmHg 69%
    09:00 +20°C° 0 mm 2 mps 632 mmHg 59%
    10:00 +24°C° 0 mm 2 mps 633 mmHg 48%
    11:00 +24°C° 0 mm 2 mps 633 mmHg 46%
    12:00 +25°C° 0 mm 2 mps 633 mmHg 44%
    13:00 +26°C° 0 mm 2 mps 633 mmHg 42%
    14:00 +26°C° 0 mm 2 mps 633 mmHg 44%
    15:00 +26°C° 0 mm 2 mps 632 mmHg 46%
    16:00 +26°C° 0 mm 3 mps 632 mmHg 48%
    17:00 +24°C° 0 mm 2 mps 631 mmHg 57%
    18:00 +21°C° 0 mm 2 mps 631 mmHg 67%
    19:00 +19°C° 0 mm 2 mps 630 mmHg 76%
    20:00 +18°C° 0 mm 2 mps 630 mmHg 79%
    21:00 +16°C° 0 mm 2 mps 629 mmHg 82%
    22:00 +15°C° 0 mm 2 mps 629 mmHg 85%
    23:00 +15°C° 0 mm 2 mps 629 mmHg 85%
    Show more